IBS1684 LEPA-LEMD

Flight info

Callsign IBS1684
Flight time 0h 58m
Altitude 31000
Route EPAMA N733 PRADO
Aircraft A320/M-SDE3FGHIRWY/LB1

Departure

Time 2026-05-04 21:56
Airport Palma de Mallorca Airport (LEPA)

Arrival

Time 2026-05-04 22:54
Airport Adolfo Suárez Madrid–Barajas Airport (LEMD)
Time Latitude Longitude Altitude Speed Heading
2026-05-04 21:29 39.54687 2.73399 36 ft 0 kts 237°
2026-05-04 21:45 39.54692 2.73409 36 ft 4 kts 235°
2026-05-04 21:45 39.54708 2.73436 36 ft 4 kts 223°
2026-05-04 21:46 39.54730 2.73455 36 ft 4 kts 193°
2026-05-04 21:46 39.54748 2.73455 32 ft 1 kts 149°
2026-05-04 21:46 39.54751 2.73452 33 ft 0 kts 149°
2026-05-04 21:48 39.54721 2.73475 36 ft 12 kts 149°
2026-05-04 21:49 39.54653 2.73530 36 ft 10 kts 148°
2026-05-04 21:49 39.54629 2.73553 36 ft 3 kts 135°
2026-05-04 21:49 39.54640 2.73618 34 ft 9 kts 58°
2026-05-04 21:49 39.54669 2.73691 36 ft 12 kts 62°
2026-05-04 21:50 39.54712 2.73788 36 ft 12 kts 59°
2026-05-04 21:50 39.54753 2.73874 36 ft 11 kts 54°
2026-05-04 21:50 39.54816 2.73986 36 ft 16 kts 34°
2026-05-04 21:50 39.54914 2.73961 36 ft 14 kts
2026-05-04 21:51 39.54985 2.74001 36 ft 11 kts 335°
2026-05-04 21:51 39.55063 2.73939 36 ft 14 kts 328°
2026-05-04 21:51 39.55144 2.73874 36 ft 13 kts 329°
2026-05-04 21:51 39.55239 2.73801 36 ft 19 kts 329°
2026-05-04 21:52 39.55358 2.73706 36 ft 21 kts 328°
2026-05-04 21:52 39.55494 2.73598 31 ft 25 kts 328°
2026-05-04 21:52 39.55613 2.73506 27 ft 12 kts 330°
2026-05-04 21:52 39.55670 2.73534 27 ft 9 kts 57°
2026-05-04 21:53 39.55718 2.73638 30 ft 16 kts 59°
2026-05-04 21:53 39.55779 2.73765 26 ft 18 kts 58°
2026-05-04 21:53 39.55850 2.73912 23 ft 21 kts 58°
2026-05-04 21:53 39.55932 2.74084 21 ft 24 kts 58°
2026-05-04 21:54 39.56022 2.74275 18 ft 21 kts 59°
2026-05-04 21:54 39.56062 2.74360 17 ft 15 kts 59°
2026-05-04 21:54 39.56125 2.74477 16 ft 16 kts 43°
2026-05-04 21:54 39.56228 2.74462 16 ft 16 kts 324°
2026-05-04 21:55 39.56264 2.74332 16 ft 17 kts 252°
2026-05-04 21:55 39.56203 2.74198 17 ft 20 kts 238°
2026-05-04 21:55 39.56015 2.73811 21 ft 88 kts 238°
2026-05-04 21:55 39.55580 2.72898 27 ft 147 kts 238°
2026-05-04 21:56 39.54958 2.71627 296 ft 175 kts 237°
2026-05-04 21:56 39.54300 2.70290 1093 ft 175 kts 238°
2026-05-04 21:56 39.53655 2.69011 2064 ft 164 kts 236°
2026-05-04 21:56 39.53021 2.67799 2786 ft 167 kts 236°
2026-05-04 21:57 39.52332 2.66520 3296 ft 179 kts 236°
2026-05-04 21:57 39.51579 2.65160 3806 ft 195 kts 236°
2026-05-04 21:57 39.50785 2.63643 4040 ft 208 kts 238°
2026-05-04 21:57 39.50008 2.62036 4800 ft 211 kts 239°
2026-05-04 21:58 39.49223 2.60413 5676 ft 213 kts 239°
2026-05-04 21:58 39.48423 2.58786 6557 ft 216 kts 239°
2026-05-04 21:58 39.47615 2.57160 7384 ft 218 kts 238°
2026-05-04 21:58 39.46779 2.55492 8282 ft 219 kts 238°
2026-05-04 21:59 39.45958 2.53862 9190 ft 219 kts 238°
2026-05-04 21:59 39.45215 2.52133 9975 ft 227 kts 253°
2026-05-04 21:59 39.45260 2.49994 10325 ft 257 kts 283°
2026-05-04 21:59 39.45847 2.47705 10693 ft 279 kts 283°
2026-05-04 22:00 39.46394 2.45188 11047 ft 301 kts 281°
2026-05-04 22:00 39.46880 2.42512 11736 ft 308 kts 279°
2026-05-04 22:00 39.47308 2.39780 12570 ft 312 kts 277°
2026-05-04 22:00 39.47685 2.37004 13424 ft 314 kts 275°
2026-05-04 22:01 39.47974 2.34185 14199 ft 317 kts 273°
2026-05-04 22:01 39.48209 2.31343 14943 ft 319 kts 272°
2026-05-04 22:01 39.48424 2.28484 15702 ft 320 kts 272°
2026-05-04 22:01 39.48638 2.25603 16461 ft 322 kts 272°
2026-05-04 22:02 39.48860 2.22702 17226 ft 324 kts 272°
2026-05-04 22:02 39.49090 2.19788 17978 ft 326 kts 272°
2026-05-04 22:02 39.49324 2.16860 18665 ft 328 kts 272°
2026-05-04 22:02 39.49561 2.13909 19284 ft 331 kts 272°
2026-05-04 22:03 39.49801 2.10932 19894 ft 334 kts 272°
2026-05-04 22:03 39.50042 2.07942 20521 ft 336 kts 272°
2026-05-04 22:03 39.50287 2.04919 21105 ft 339 kts 272°
2026-05-04 22:03 39.50532 2.01876 21702 ft 341 kts 271°
2026-05-04 22:04 39.50778 1.98802 22277 ft 344 kts 271°
2026-05-04 22:04 39.51023 1.95707 22841 ft 347 kts 271°
2026-05-04 22:04 39.51271 1.92584 23405 ft 350 kts 271°
2026-05-04 22:04 39.51521 1.89437 23881 ft 353 kts 271°
2026-05-04 22:05 39.51772 1.86260 24333 ft 356 kts 271°
2026-05-04 22:05 39.52025 1.83059 24787 ft 358 kts 271°
2026-05-04 22:05 39.52280 1.79836 25235 ft 361 kts 271°
2026-05-04 22:05 39.52531 1.76629 25667 ft 363 kts 272°
2026-05-04 22:06 39.52790 1.73322 26106 ft 366 kts 272°
2026-05-04 22:06 39.53046 1.70068 26526 ft 369 kts 272°
2026-05-04 22:06 39.53304 1.66750 26946 ft 371 kts 272°
2026-05-04 22:06 39.53565 1.63369 27366 ft 374 kts 272°
2026-05-04 22:07 39.53819 1.60051 27773 ft 377 kts 272°
2026-05-04 22:07 39.54077 1.56663 28185 ft 379 kts 272°
2026-05-04 22:07 39.54337 1.53252 28594 ft 382 kts 272°
2026-05-04 22:07 39.54596 1.49816 29002 ft 384 kts 272°
2026-05-04 22:08 39.54853 1.46372 29399 ft 386 kts 272°
2026-05-04 22:08 39.55113 1.42891 29799 ft 389 kts 272°
2026-05-04 22:08 39.55376 1.39399 30161 ft 391 kts 272°
2026-05-04 22:08 39.55641 1.35881 30490 ft 393 kts 272°
2026-05-04 22:09 39.55904 1.32354 30816 ft 395 kts 272°
2026-05-04 22:09 39.56165 1.28808 30944 ft 392 kts 272°
2026-05-04 22:09 39.56423 1.25360 30962 ft 375 kts 272°
2026-05-04 22:09 39.56671 1.22076 30960 ft 362 kts 272°
2026-05-04 22:10 39.56911 1.18848 30965 ft 357 kts 272°
2026-05-04 22:10 39.57370 1.12473 30964 ft 355 kts 271°
2026-05-04 22:11 39.57821 1.06116 30962 ft 354 kts 271°
2026-05-04 22:11 39.58279 0.99760 30964 ft 354 kts 271°
2026-05-04 22:12 39.58735 0.93410 30960 ft 354 kts 271°
2026-05-04 22:12 39.59184 0.87062 30962 ft 353 kts 271°
2026-05-04 22:13 39.59629 0.80722 30963 ft 353 kts 271°
2026-05-04 22:13 39.60059 0.74436 30968 ft 352 kts 271°
2026-05-04 22:14 39.60498 0.68067 30961 ft 352 kts 271°
2026-05-04 22:14 39.60927 0.61800 30960 ft 351 kts 271°
2026-05-04 22:15 39.61352 0.55497 30957 ft 351 kts 271°
2026-05-04 22:15 39.61775 0.49196 30958 ft 350 kts 271°
2026-05-04 22:16 39.62193 0.42902 30958 ft 350 kts 271°
2026-05-04 22:16 39.62609 0.36618 30962 ft 349 kts 271°
2026-05-04 22:17 39.63024 0.30339 30952 ft 349 kts 271°
2026-05-04 22:17 39.63430 0.24057 30961 ft 349 kts 271°
2026-05-04 22:18 39.63837 0.17784 30951 ft 349 kts 271°
2026-05-04 22:18 39.64237 0.11503 30953 ft 349 kts 271°
2026-05-04 22:19 39.64632 0.05224 30953 ft 349 kts 271°
2026-05-04 22:19 39.65028 -0.01054 30956 ft 349 kts 271°
2026-05-04 22:20 39.65421 -0.07334 30961 ft 349 kts 271°
2026-05-04 22:20 39.65808 -0.13621 30961 ft 349 kts 271°
2026-05-04 22:21 39.66192 -0.19898 30960 ft 349 kts 271°
2026-05-04 22:21 39.66576 -0.26186 30964 ft 349 kts 271°
2026-05-04 22:22 39.66949 -0.32422 30963 ft 349 kts 271°
2026-05-04 22:22 39.67324 -0.38730 30964 ft 349 kts 271°
2026-05-04 22:23 39.67698 -0.45008 30963 ft 349 kts 271°
2026-05-04 22:23 39.68066 -0.51284 30962 ft 349 kts 271°
2026-05-04 22:24 39.68426 -0.57558 30961 ft 349 kts 271°
2026-05-04 22:24 39.68778 -0.63805 30964 ft 348 kts 271°
2026-05-04 22:25 39.69131 -0.70068 30967 ft 348 kts 271°
2026-05-04 22:25 39.69867 -0.76278 30971 ft 353 kts 282°
2026-05-04 22:26 39.71363 -0.82362 30997 ft 354 kts 283°
2026-05-04 22:26 39.72871 -0.88447 31004 ft 354 kts 283°
2026-05-04 22:27 39.74374 -0.94537 31014 ft 354 kts 283°
2026-05-04 22:27 39.75874 -1.00632 30935 ft 353 kts 283°
2026-05-04 22:27 39.76614 -1.03653 30693 ft 349 kts 282°
2026-05-04 22:28 39.77348 -1.06655 30449 ft 347 kts 282°
2026-05-04 22:28 39.78080 -1.09643 30210 ft 347 kts 282°
2026-05-04 22:28 39.78810 -1.12619 29955 ft 345 kts 282°
2026-05-04 22:28 39.79537 -1.15591 29668 ft 344 kts 282°
2026-05-04 22:29 39.80257 -1.18542 29382 ft 342 kts 282°
2026-05-04 22:29 39.80972 -1.21489 29109 ft 341 kts 282°
2026-05-04 22:29 39.81684 -1.24438 28828 ft 340 kts 282°
2026-05-04 22:29 39.82393 -1.27367 28554 ft 339 kts 282°
2026-05-04 22:30 39.83101 -1.30287 28284 ft 338 kts 282°
2026-05-04 22:30 39.83808 -1.33196 28032 ft 337 kts 282°
2026-05-04 22:30 39.84516 -1.36105 27754 ft 336 kts 282°
2026-05-04 22:30 39.85217 -1.39004 27490 ft 335 kts 282°
2026-05-04 22:31 39.85911 -1.41887 27228 ft 334 kts 282°
2026-05-04 22:31 39.86598 -1.44733 26972 ft 333 kts 282°
2026-05-04 22:31 39.87288 -1.47597 26716 ft 332 kts 282°
2026-05-04 22:31 39.87986 -1.50501 26463 ft 331 kts 282°
2026-05-04 22:32 39.88661 -1.53320 26218 ft 330 kts 282°
2026-05-04 22:32 39.89341 -1.56170 25972 ft 330 kts 282°
2026-05-04 22:32 39.90022 -1.59024 25726 ft 329 kts 282°
2026-05-04 22:32 39.90701 -1.61860 25479 ft 328 kts 282°
2026-05-04 22:33 39.91383 -1.64699 25240 ft 328 kts 282°
2026-05-04 22:33 39.92061 -1.67522 24999 ft 327 kts 282°
2026-05-04 22:33 39.92737 -1.70347 24765 ft 326 kts 282°
2026-05-04 22:33 39.93411 -1.73169 24526 ft 326 kts 282°
2026-05-04 22:34 39.94079 -1.75982 24291 ft 325 kts 282°
2026-05-04 22:34 39.94744 -1.78790 24059 ft 325 kts 282°
2026-05-04 22:34 39.95408 -1.81601 23831 ft 324 kts 282°
2026-05-04 22:34 39.96068 -1.84407 23602 ft 323 kts 282°
2026-05-04 22:35 39.96728 -1.87202 23326 ft 323 kts 282°
2026-05-04 22:35 39.97390 -1.89996 23054 ft 322 kts 282°
2026-05-04 22:35 39.98050 -1.92778 22795 ft 321 kts 282°
2026-05-04 22:35 39.98703 -1.95546 22521 ft 319 kts 282°
2026-05-04 22:36 39.99357 -1.98313 22251 ft 318 kts 282°
2026-05-04 22:36 40.00005 -2.01070 21993 ft 317 kts 282°
2026-05-04 22:36 40.00651 -2.03816 21733 ft 316 kts 282°
2026-05-04 22:36 40.01295 -2.06553 21473 ft 315 kts 282°
2026-05-04 22:37 40.01937 -2.09281 21204 ft 314 kts 282°
2026-05-04 22:37 40.02577 -2.12003 20955 ft 313 kts 281°
2026-05-04 22:37 40.03212 -2.14719 20705 ft 312 kts 281°
2026-05-04 22:37 40.03840 -2.17418 20458 ft 311 kts 281°
2026-05-04 22:38 40.04466 -2.20119 20206 ft 310 kts 281°
2026-05-04 22:38 40.05089 -2.22807 19964 ft 309 kts 281°
2026-05-04 22:38 40.05702 -2.25453 19724 ft 308 kts 281°
2026-05-04 22:38 40.06321 -2.28122 19479 ft 307 kts 281°
2026-05-04 22:39 40.06939 -2.30783 19238 ft 306 kts 281°
2026-05-04 22:39 40.07555 -2.33438 19004 ft 305 kts 281°
2026-05-04 22:39 40.08166 -2.36078 18770 ft 304 kts 281°
2026-05-04 22:39 40.08777 -2.38725 18535 ft 303 kts 281°
2026-05-04 22:40 40.09387 -2.41354 18298 ft 302 kts 281°
2026-05-04 22:40 40.09995 -2.43971 18031 ft 301 kts 281°
2026-05-04 22:40 40.10600 -2.46583 17756 ft 300 kts 281°
2026-05-04 22:40 40.11202 -2.49183 17498 ft 299 kts 281°
2026-05-04 22:41 40.11801 -2.51779 17239 ft 298 kts 281°
2026-05-04 22:41 40.12398 -2.54374 16974 ft 298 kts 281°
2026-05-04 22:41 40.12987 -2.56957 16711 ft 296 kts 281°
2026-05-04 22:41 40.13574 -2.59533 16458 ft 296 kts 282°
2026-05-04 22:42 40.14161 -2.62104 16220 ft 294 kts 282°
2026-05-04 22:42 40.14744 -2.64643 15934 ft 291 kts 282°
2026-05-04 22:42 40.15321 -2.67167 15590 ft 290 kts 282°
2026-05-04 22:42 40.15898 -2.69689 15253 ft 289 kts 282°
2026-05-04 22:43 40.16470 -2.72195 14915 ft 288 kts 282°
2026-05-04 22:43 40.17042 -2.74713 14568 ft 288 kts 282°
2026-05-04 22:43 40.17612 -2.77225 14223 ft 288 kts 282°
2026-05-04 22:43 40.18179 -2.79732 13880 ft 288 kts 282°
2026-05-04 22:44 40.18556 -2.81400 13635 ft 288 kts 282°
2026-05-04 22:44 40.19124 -2.83903 13273 ft 287 kts 283°
2026-05-04 22:44 40.19693 -2.86403 12925 ft 286 kts 283°
2026-05-04 22:44 40.20260 -2.88896 12572 ft 285 kts 283°
2026-05-04 22:45 40.20824 -2.91380 12224 ft 285 kts 283°
2026-05-04 22:45 40.21943 -2.96335 11504 ft 283 kts 283°
2026-05-04 22:45 40.22498 -2.98801 11135 ft 283 kts 283°
2026-05-04 22:46 40.23054 -3.01270 10768 ft 282 kts 283°
2026-05-04 22:46 40.23609 -3.03733 10405 ft 282 kts 283°
2026-05-04 22:46 40.24160 -3.06190 10021 ft 282 kts 283°
2026-05-04 22:46 40.24711 -3.08653 9623 ft 282 kts 283°
2026-05-04 22:47 40.25262 -3.11112 9204 ft 281 kts 283°
2026-05-04 22:47 40.25802 -3.13563 8785 ft 279 kts 280°
2026-05-04 22:47 40.26144 -3.16045 8380 ft 277 kts 277°
2026-05-04 22:47 40.26466 -3.18522 7981 ft 275 kts 277°
2026-05-04 22:48 40.26788 -3.20978 7574 ft 274 kts 277°
2026-05-04 22:48 40.27109 -3.23414 7182 ft 272 kts 277°
2026-05-04 22:48 40.27432 -3.25848 6884 ft 267 kts 277°
2026-05-04 22:48 40.27745 -3.28204 6596 ft 262 kts 278°
2026-05-04 22:49 40.28056 -3.30532 6353 ft 255 kts 280°
2026-05-04 22:49 40.28620 -3.32675 6217 ft 245 kts 294°
2026-05-04 22:49 40.29556 -3.34495 6107 ft 237 kts 308°
2026-05-04 22:49 40.30613 -3.36101 5990 ft 228 kts 307°
2026-05-04 22:50 40.31673 -3.37617 5776 ft 226 kts 313°
2026-05-04 22:50 40.32849 -3.38940 5494 ft 226 kts 318°
2026-05-04 22:50 40.34098 -3.40211 5193 ft 227 kts 319°
2026-05-04 22:50 40.35352 -3.41472 4896 ft 228 kts 319°
2026-05-04 22:51 40.36603 -3.42733 4585 ft 224 kts 319°
2026-05-04 22:51 40.37811 -3.43952 4286 ft 216 kts 319°
2026-05-04 22:51 40.38979 -3.45133 4014 ft 207 kts 319°
2026-05-04 22:51 40.40096 -3.46262 3753 ft 196 kts 319°
2026-05-04 22:52 40.41139 -3.47315 3501 ft 181 kts 319°
2026-05-04 22:52 40.42102 -3.48290 3241 ft 169 kts 319°
2026-05-04 22:52 40.42996 -3.49195 3032 ft 154 kts 320°
2026-05-04 22:52 40.43813 -3.50025 2798 ft 144 kts 320°
2026-05-04 22:53 40.44586 -3.50822 2619 ft 139 kts 320°
2026-05-04 22:53 40.45339 -3.51597 2428 ft 137 kts 322°
2026-05-04 22:53 40.46092 -3.52352 2250 ft 136 kts 322°
2026-05-04 22:53 40.46840 -3.53111 2088 ft 135 kts 321°
2026-05-04 22:54 40.47583 -3.53850 1994 ft 134 kts 321°
2026-05-04 22:54 40.48215 -3.54493 1980 ft 91 kts 322°
2026-05-04 22:54 40.48591 -3.54875 1983 ft 53 kts 323°
2026-05-04 22:54 40.48857 -3.55145 1982 ft 43 kts 323°
2026-05-04 22:55 40.49067 -3.55355 1980 ft 34 kts 321°
2026-05-04 22:55 40.49198 -3.55554 1980 ft 23 kts 301°
2026-05-04 22:55 40.49257 -3.55738 1983 ft 22 kts 292°
2026-05-04 22:55 40.49304 -3.55934 1980 ft 23 kts 271°
2026-05-04 22:56 40.49284 -3.56137 1983 ft 18 kts 230°
2026-05-04 22:56 40.49171 -3.56147 1980 ft 18 kts 177°
2026-05-04 22:56 40.49042 -3.56146 1980 ft 20 kts 180°
2026-05-04 22:56 40.48897 -3.56146 1980 ft 22 kts 180°
2026-05-04 22:57 40.48770 -3.56184 1981 ft 12 kts 242°
2026-05-04 22:57 40.48768 -3.56298 1984 ft 14 kts 272°
2026-05-04 22:57 40.48769 -3.56435 1981 ft 16 kts 270°
2026-05-04 22:57 40.48769 -3.56593 1980 ft 18 kts 269°
2026-05-04 22:58 40.48767 -3.56772 1984 ft 21 kts 269°
2026-05-04 22:58 40.48766 -3.56970 1980 ft 23 kts 270°
2026-05-04 22:58 40.48767 -3.57185 1982 ft 24 kts 270°
2026-05-04 22:58 40.48766 -3.57416 1984 ft 26 kts 270°
2026-05-04 22:59 40.48766 -3.57650 1982 ft 25 kts 270°
2026-05-04 22:59 40.48763 -3.57849 1980 ft 18 kts 270°
2026-05-04 22:59 40.48697 -3.57935 1980 ft 17 kts 179°
2026-05-04 22:59 40.48602 -3.57983 1981 ft 15 kts 255°
2026-05-04 23:00 40.48599 -3.58130 1982 ft 17 kts 270°
2026-05-04 23:00 40.48598 -3.58297 1982 ft 19 kts 269°
2026-05-04 23:00 40.48597 -3.58485 1983 ft 22 kts 270°
2026-05-04 23:00 40.48596 -3.58683 1982 ft 20 kts 270°
2026-05-04 23:01 40.48625 -3.58818 1981 ft 10 kts 339°
2026-05-04 23:01 40.48677 -3.58848 1981 ft 9 kts 297°
2026-05-04 23:01 40.48676 -3.58930 1981 ft 9 kts 265°
2026-05-04 23:01 40.48674 -3.58974 1981 ft 0 kts 267°